| time (UTC) | temp F | wind direction | speed MPH | gust MPH | rain 1hr in | rain 24hr in | rain mn in | humidity % | barometer mb |
| 20260503050156 | 40 | 221 | 1.0 | 6.0 | 0.00 | 0.00 | 0.00 | 64 | 1015.8 |
| 20260503050038 | 40 | 221 | 0.0 | 6.0 | 0.00 | 0.00 | 0.00 | 64 | 1016.3 |
| 20260503045654 | 40 | 355 | 1.0 | 6.0 | 0.00 | 0.00 | 0.00 | 64 | 1015.8 |
| 20260503045152 | 40 | 273 | 1.0 | 5.0 | 0.00 | 0.00 | 0.00 | 64 | 1015.8 |
| 20260503044647 | 41 | 264 | 1.0 | 5.0 | 0.00 | 0.00 | 0.00 | 62 | 1015.7 |
| 20260503044526 | 41 | 264 | 2.0 | 5.0 | 0.00 | 0.00 | 0.00 | 62 | 1016.2 |
| 20260503044146 | 41 | 261 | 0.0 | 5.0 | 0.00 | 0.00 | 0.00 | 62 | 1015.7 |
| 20260503043635 | 41 | 261 | 1.0 | 5.0 | 0.00 | 0.00 | 0.00 | 62 | 1015.5 |
| 20260503043130 | 41 | 261 | 2.0 | 8.0 | 0.00 | 0.00 | 0.00 | 62 | 1015.5 |
| 20260503043007 | 41 | 234 | 2.0 | 8.0 | 0.00 | 0.00 | 0.00 | 62 | 1016.0 |
| 20260503042858 | 41 | 250 | 1.0 | 8.0 | 0.00 | 0.00 | 0.00 | 62 | 1015.5 |
| 20260503042121 | 41 | 271 | 1.0 | 3.0 | 0.00 | 0.00 | 0.00 | 63 | 1015.5 |
| 20260503041611 | 41 | 297 | 1.0 | 3.0 | 0.00 | 0.00 | 0.00 | 61 | 1015.4 |
| 20260503041551 | 41 | 297 | 0.0 | 3.0 | 0.00 | 0.00 | 0.00 | 62 | 1015.9 |
| 20260503041105 | 42 | 236 | 1.0 | 3.0 | 0.00 | 0.00 | 0.00 | 62 | 1015.4 |
| 20260503040554 | 42 | 236 | 1.0 | 3.0 | 0.00 | 0.00 | 0.00 | 60 | 1015.4 |
| 20260503040319 | 42 | 348 | 1.0 | 3.0 | 0.00 | 0.00 | 0.00 | 61 | 1015.4 |
| 20260503040025 | 42 | 348 | 0.0 | 3.0 | 0.00 | 0.00 | 0.00 | 61 | 1015.8 |
| 20260503035534 | 42 | 309 | 1.0 | 3.0 | 0.00 | 0.00 | 0.00 | 60 | 1015.3 |
| 20260503035026 | 42 | 240 | 1.0 | 3.0 | 0.00 | 0.00 | 0.00 | 61 | 1015.2 |
| 20260503034745 | 42 | 244 | 1.0 | 7.0 | 0.00 | 0.00 | 0.00 | 61 | 1015.4 |
| 20260503034557 | 42 | 238 | 1.0 | 6.0 | 0.00 | 0.00 | 0.00 | 61 | 1015.7 |
| 20260503034005 | 42 | 316 | 1.0 | 7.0 | 0.00 | 0.00 | 0.00 | 61 | 1015.2 |
| 20260503033450 | 42 | 248 | 1.0 | 3.0 | 0.00 | 0.00 | 0.00 | 61 | 1015.3 |
| 20260503033020 | 41 | 173 | 0.0 | 3.0 | 0.00 | 0.00 | 0.00 | 61 | 1015.6 |
| 20260503032941 | 42 | 166 | 1.0 | 3.0 | 0.00 | 0.00 | 0.00 | 61 | 1015.4 |
| 20260503032701 | 41 | 240 | 0.0 | 3.0 | 0.00 | 0.00 | 0.00 | 61 | 1015.3 |
| 20260503031922 | 41 | 209 | 0.0 | 3.0 | 0.00 | 0.00 | 0.00 | 62 | 1015.2 |
| 20260503031552 | 41 | 203 | 0.0 | 3.0 | 0.00 | 0.00 | 0.00 | 62 | 1015.6 |
| 20260503031411 | 41 | 203 | 1.0 | 4.0 | 0.00 | 0.00 | 0.00 | 62 | 1015.2 |
| 20260503030901 | 41 | 315 | 0.0 | 4.0 | 0.00 | 0.00 | 0.00 | 63 | 1015.1 |
| 20260503030347 | 41 | 249 | 0.0 | 3.0 | 0.00 | 0.00 | 0.00 | 62 | 1015.2 |
| 20260503030024 | 41 | 249 | 0.0 | 3.0 | 0.00 | 0.00 | 0.00 | 62 | 1015.6 |
| 20260503025838 | 41 | 249 | 1.0 | 6.0 | 0.00 | 0.00 | 0.00 | 62 | 1015.2 |
| 20260503025557 | 41 | 246 | 1.0 | 6.0 | 0.00 | 0.00 | 0.00 | 63 | 1015.2 |
| 20260503024818 | 41 | 227 | 0.0 | 3.0 | 0.00 | 0.00 | 0.00 | 63 | 1015.1 |
| 20260503024551 | 41 | 227 | 1.0 | 3.0 | 0.00 | 0.00 | 0.00 | 63 | 1015.4 |
| 20260503024307 | 41 | 221 | 0.0 | 2.0 | 0.00 | 0.00 | 0.00 | 63 | 1015.1 |
| 20260503024026 | 41 | 221 | 0.0 | 2.0 | 0.00 | 0.00 | 0.00 | 63 | 1015.2 |
| 20260503023235 | 41 | 224 | 0.0 | 2.0 | 0.00 | 0.00 | 0.00 | 64 | 1015.0 |
| 20260503023007 | 41 | 276 | 0.0 | 2.0 | 0.00 | 0.00 | 0.00 | 64 | 1015.4 |
| 20260503022726 | 41 | 239 | 0.0 | 2.0 | 0.00 | 0.00 | 0.00 | 64 | 1015.1 |
| 20260503022216 | 41 | 239 | 0.0 | 2.0 | 0.00 | 0.00 | 0.00 | 62 | 1014.9 |
| 20260503021704 | 41 | 239 | 0.0 | 2.0 | 0.00 | 0.00 | 0.00 | 63 | 1014.9 |
| 20260503021657 | 42 | 340 | 1.0 | 6.0 | 0.00 | 0.00 | 0.00 | 62 | 1015.0 |
| 20260503021540 | 41 | 239 | 0.0 | 2.0 | 0.00 | 0.00 | 0.00 | 63 | 1015.2 |
| 20260503020637 | 42 | 340 | 1.0 | 6.0 | 0.00 | 0.00 | 0.00 | 62 | 1015.0 |
| 20260503020121 | 42 | 304 | 1.0 | 3.0 | 0.00 | 0.00 | 0.00 | 61 | 1015.0 |
| 20260503015843 | 43 | 251 | 0.0 | 1.0 | 0.00 | 0.00 | 0.00 | 61 | 1015.0 |
| 20260503015331 | 43 | 251 | 1.0 | 2.0 | 0.00 | 0.00 | 0.00 | 59 | 1014.9 |
| 20260503014550 | 44 | 251 | 1.0 | 2.0 | 0.00 | 0.00 | 0.00 | 58 | 1014.9 |
| 20260503014527 | 43 | 251 | 0.0 | 2.0 | 0.00 | 0.00 | 0.00 | 58 | 1015.2 |
| 20260503014312 | 44 | 331 | 1.0 | 6.0 | 0.00 | 0.00 | 0.00 | 58 | 1015.0 |
| 20260503013530 | 44 | 333 | 1.0 | 6.0 | 0.00 | 0.00 | 0.00 | 57 | 1014.9 |
| 20260503013056 | 44 | 248 | 1.0 | 3.0 | 0.00 | 0.00 | 0.00 | 58 | 1015.0 |
| 20260503013016 | 44 | 245 | 1.0 | 3.0 | 0.00 | 0.00 | 0.00 | 57 | 1014.9 |
| 20260503012506 | 44 | 271 | 1.0 | 4.0 | 0.00 | 0.00 | 0.00 | 57 | 1014.8 |
| 20260503011957 | 44 | 267 | 1.0 | 4.0 | 0.00 | 0.00 | 0.00 | 57 | 1014.7 |
| 20260503011526 | 44 | 234 | 1.0 | 4.0 | 0.00 | 0.00 | 0.00 | 58 | 1014.9 |
| 20260503011446 | 44 | 234 | 1.0 | 4.0 | 0.00 | 0.00 | 0.00 | 58 | 1014.7 |
| 20260503010936 | 44 | 295 | 1.0 | 3.0 | 0.00 | 0.00 | 0.00 | 58 | 1014.6 |
| 20260503010426 | 44 | 317 | 1.0 | 4.0 | 0.00 | 0.00 | 0.00 | 58 | 1014.5 |
| 20260503010055 | 44 | 317 | 1.0 | 5.0 | 0.00 | 0.00 | 0.00 | 58 | 1014.7 |
| 20260503005913 | 44 | 273 | 1.0 | 5.0 | 0.00 | 0.00 | 0.00 | 58 | 1014.4 |
| 20260503005402 | 44 | 246 | 1.0 | 8.0 | 0.00 | 0.00 | 0.00 | 58 | 1014.4 |
| 20260503004852 | 44 | 255 | 1.0 | 8.0 | 0.00 | 0.00 | 0.00 | 57 | 1014.4 |
| 20260503004521 | 44 | 200 | 0.0 | 1.0 | 0.00 | 0.00 | 0.00 | 56 | 1014.6 |
| 20260503004340 | 45 | 200 | 0.0 | 1.0 | 0.00 | 0.00 | 0.00 | 56 | 1014.4 |
| 20260503003830 | 45 | 200 | 0.0 | 2.0 | 0.00 | 0.00 | 0.00 | 54 | 1014.3 |
| 20260503003321 | 46 | 252 | 0.0 | 6.0 | 0.00 | 0.00 | 0.00 | 53 | 1014.3 |
| 20260503003102 | 46 | 252 | 0.0 | 1.0 | 0.00 | 0.00 | 0.00 | 52 | 1014.4 |
| 20260503002819 | 46 | 279 | 1.0 | 6.0 | 0.00 | 0.00 | 0.00 | 52 | 1014.3 |
| 20260503002301 | 46 | 279 | 2.0 | 8.0 | 0.00 | 0.00 | 0.00 | 51 | 1014.2 |
| 20260503001751 | 47 | 300 | 2.0 | 8.0 | 0.00 | 0.00 | 0.00 | 51 | 1014.0 |
| 20260503001524 | 47 | 343 | 2.0 | 8.0 | 0.00 | 0.00 | 0.00 | 50 | 1014.1 |
| 20260503001512 | 47 | 283 | 0.0 | 3.0 | 0.00 | 0.00 | 0.00 | 50 | 1014.0 |
| 20260503001003 | 47 | 315 | 1.0 | 3.0 | 0.00 | 0.00 | 0.00 | 50 | 1014.0 |
| 20260503000221 | 47 | 320 | 1.0 | 3.0 | 0.00 | 0.00 | 0.00 | 49 | 1013.8 |
| 20260503000058 | 47 | 320 | 0.0 | 3.0 | 0.00 | 0.00 | 0.00 | 49 | 1013.9 |
| 20260502235707 | 47 | 326 | 1.0 | 5.0 | 0.00 | 0.00 | 0.00 | 49 | 1013.9 |
| 20260502235156 | 48 | 277 | 1.0 | 5.0 | 0.00 | 0.00 | 0.00 | 50 | 1013.9 |
| 20260502234647 | 48 | 326 | 2.0 | 7.0 | 0.00 | 0.00 | 0.00 | 49 | 1013.8 |
| 20260502234526 | 48 | 326 | 0.0 | 7.0 | 0.00 | 0.00 | 0.00 | 48 | 1013.9 |
| 20260502234136 | 48 | 325 | 2.0 | 7.0 | 0.00 | 0.00 | 0.00 | 48 | 1013.8 |
| 20260502233900 | 49 | 292 | 2.0 | 8.0 | 0.00 | 0.00 | 0.00 | 50 | 1013.8 |
| 20260502233116 | 49 | 327 | 1.0 | 4.0 | 0.00 | 0.00 | 0.00 | 50 | 1013.7 |
| 20260502233057 | 49 | 339 | 1.0 | 8.0 | 0.00 | 0.00 | 0.00 | 50 | 1013.8 |
| 20260502232602 | 49 | 212 | 2.0 | 10.0 | 0.00 | 0.00 | 0.00 | 50 | 1013.7 |
| 20260502232053 | 49 | 324 | 3.0 | 10.0 | 0.00 | 0.00 | 0.00 | 48 | 1013.8 |
| 20260502231543 | 49 | 321 | 4.0 | 11.0 | 0.00 | 0.00 | 0.00 | 48 | 1013.7 |
| 20260502231525 | 49 | 326 | 3.0 | 11.0 | 0.00 | 0.00 | 0.00 | 48 | 1013.7 |
| 20260502231033 | 49 | 309 | 3.0 | 11.0 | 0.00 | 0.00 | 0.00 | 48 | 1013.8 |
| 20260502230523 | 49 | 279 | 3.0 | 8.0 | 0.00 | 0.00 | 0.00 | 48 | 1013.7 |
| 20260502230058 | 50 | 331 | 2.0 | 8.0 | 0.00 | 0.00 | 0.00 | 48 | 1013.7 |
| 20260502230012 | 50 | 278 | 4.0 | 10.0 | 0.00 | 0.00 | 0.00 | 48 | 1013.6 |
| 20260502225459 | 50 | 293 | 4.0 | 12.0 | 0.00 | 0.00 | 0.00 | 49 | 1013.6 |
| 20260502225220 | 50 | 355 | 3.0 | 12.0 | 0.00 | 0.00 | 0.00 | 46 | 1013.7 |
| 20260502224517 | 50 | 296 | 3.0 | 14.0 | 0.00 | 0.00 | 0.00 | 45 | 1013.7 |
| 20260502224438 | 50 | 269 | 4.0 | 14.0 | 0.00 | 0.00 | 0.00 | 46 | 1013.6 |
| 20260502223928 | 50 | 320 | 4.0 | 14.0 | 0.00 | 0.00 | 0.00 | 46 | 1013.6 |
| 20260502223419 | 51 | 333 | 4.0 | 11.0 | 0.00 | 0.00 | 0.00 | 46 | 1013.4 |
| 20260502223059 | 51 | 332 | 3.0 | 11.0 | 0.00 | 0.00 | 0.00 | 45 | 1013.4 |
| 20260502222907 | 51 | 317 | 5.0 | 9.0 | 0.00 | 0.00 | 0.00 | 45 | 1013.3 |
| 20260502222354 | 51 | 321 | 5.0 | 12.0 | 0.00 | 0.00 | 0.00 | 44 | 1013.3 |
| 20260502221845 | 51 | 306 | 3.0 | 11.0 | 0.00 | 0.00 | 0.00 | 43 | 1013.2 |
| 20260502221518 | 51 | 253 | 3.0 | 8.0 | 0.00 | 0.00 | 0.00 | 43 | 1012.9 |
| 20260502221339 | 51 | 314 | 2.0 | 7.0 | 0.00 | 0.00 | 0.00 | 43 | 1013.1 |
| 20260502220829 | 51 | 288 | 2.0 | 10.0 | 0.00 | 0.00 | 0.00 | 42 | 1013.1 |
| 20260502220319 | 51 | 330 | 2.0 | 12.0 | 0.00 | 0.00 | 0.00 | 44 | 1013.0 |
| 20260502220101 | 51 | 290 | 1.0 | 6.0 | 0.00 | 0.00 | 0.00 | 45 | 1012.7 |
| 20260502215810 | 51 | 315 | 3.0 | 12.0 | 0.00 | 0.00 | 0.00 | 44 | 1013.0 |
| 20260502215300 | 51 | 309 | 4.0 | 14.0 | 0.00 | 0.00 | 0.00 | 43 | 1012.8 |
| 20260502215022 | 52 | 292 | 3.0 | 14.0 | 0.00 | 0.00 | 0.00 | 42 | 1012.8 |
| 20260502214523 | 52 | 257 | 1.0 | 10.0 | 0.00 | 0.00 | 0.00 | 41 | 1012.6 |
| 20260502214240 | 53 | 234 | 3.0 | 10.0 | 0.00 | 0.00 | 0.00 | 41 | 1012.8 |
| 20260502213739 | 53 | 263 | 4.0 | 12.0 | 0.00 | 0.00 | 0.00 | 43 | 1012.7 |
| 20260502213233 | 53 | 271 | 5.0 | 12.0 | 0.00 | 0.00 | 0.00 | 47 | 1012.7 |
| 20260502213014 | 52 | 315 | 5.0 | 13.0 | 0.00 | 0.00 | 0.00 | 44 | 1012.4 |
| 20260502212726 | 52 | 355 | 5.0 | 13.0 | 0.00 | 0.00 | 0.00 | 44 | 1012.7 |
| 20260502212218 | 51 | 344 | 4.0 | 13.0 | 0.00 | 0.00 | 0.00 | 44 | 1012.8 |
| 20260502211713 | 51 | 298 | 4.0 | 12.0 | 0.00 | 0.00 | 0.00 | 42 | 1012.8 |
| 20260502211553 | 51 | 292 | 3.0 | 11.0 | 0.00 | 0.00 | 0.00 | 43 | 1012.4 |
| 20260502211440 | 52 | 323 | 4.0 | 15.0 | 0.00 | 0.00 | 0.00 | 43 | 1012.7 |
| 20260502210658 | 51 | 338 | 5.0 | 15.0 | 0.00 | 0.00 | 0.00 | 43 | 1012.4 |
| 20260502210157 | 51 | 340 | 4.0 | 13.0 | 0.00 | 0.00 | 0.00 | 43 | 1012.7 |
| 20260502210049 | 51 | 329 | 4.0 | 13.0 | 0.00 | 0.00 | 0.00 | 43 | 1012.3 |
| 20260502205651 | 52 | 355 | 5.0 | 15.0 | 0.00 | 0.00 | 0.00 | 43 | 1012.7 |
| 20260502205137 | 52 | 264 | 6.0 | 15.0 | 0.00 | 0.00 | 0.00 | 42 | 1012.6 |
| 20260502204632 | 52 | 268 | 5.0 | 16.0 | 0.00 | 0.00 | 0.00 | 44 | 1012.6 |
| 20260502204508 | 52 | 319 | 4.0 | 16.0 | 0.00 | 0.00 | 0.00 | 44 | 1012.3 |
| 20260502204124 | 52 | 340 | 4.0 | 16.0 | 0.00 | 0.00 | 0.00 | 42 | 1012.7 |
| 20260502203618 | 52 | 291 | 3.0 | 9.0 | 0.00 | 0.00 | 0.00 | 42 | 1012.6 |
| 20260502203118 | 52 | 248 | 1.0 | 10.0 | 0.00 | 0.00 | 0.00 | 42 | 1012.3 |
| 20260502203110 | 53 | 290 | 3.0 | 10.0 | 0.00 | 0.00 | 0.00 | 42 | 1012.6 |
| 20260502202606 | 53 | 325 | 2.0 | 13.0 | 0.00 | 0.00 | 0.00 | 41 | 1012.7 |
| 20260502202051 | 54 | 302 | 3.0 | 13.0 | 0.00 | 0.00 | 0.00 | 41 | 1012.6 |
| 20260502201542 | 54 | 300 | 4.0 | 15.0 | 0.00 | 0.00 | 0.00 | 42 | 1012.4 |
| 20260502201533 | 54 | 300 | 3.0 | 15.0 | 0.00 | 0.00 | 0.00 | 42 | 1012.2 |
| 20260502201035 | 54 | 332 | 3.0 | 15.0 | 0.00 | 0.00 | 0.00 | 43 | 1012.7 |
| 20260502200529 | 54 | 254 | 2.0 | 13.0 | 0.00 | 0.00 | 0.00 | 42 | 1012.7 |
| 20260502200122 | 54 | 192 | 2.0 | 10.0 | 0.00 | 0.00 | 0.00 | 42 | 1012.3 |
| 20260502200031 | 54 | 290 | 4.0 | 10.0 | 0.00 | 0.00 | 0.00 | 41 | 1012.7 |
| 20260502195514 | 54 | 327 | 5.0 | 15.0 | 0.00 | 0.00 | 0.00 | 44 | 1012.7 |
| 20260502195004 | 53 | 327 | 5.0 | 15.0 | 0.00 | 0.00 | 0.00 | 43 | 1012.7 |
| 20260502194535 | 53 | 5 | 5.0 | 14.0 | 0.00 | 0.00 | 0.00 | 40 | 1012.3 |
| 20260502194454 | 53 | 280 | 5.0 | 14.0 | 0.00 | 0.00 | 0.00 | 41 | 1012.8 |
| 20260502194217 | 53 | 333 | 5.0 | 16.0 | 0.00 | 0.00 | 0.00 | 40 | 1012.8 |
| 20260502193436 | 53 | 324 | 6.0 | 16.0 | 0.00 | 0.00 | 0.00 | 41 | 1012.8 |
| 20260502193006 | 53 | 333 | 7.0 | 16.0 | 0.00 | 0.00 | 0.00 | 42 | 1012.3 |
| 20260502192926 | 53 | 332 | 5.0 | 15.0 | 0.00 | 0.00 | 0.00 | 40 | 1012.8 |
| 20260502192918 | 53 | 342 | 5.0 | 15.0 | 0.00 | 0.00 | 0.00 | 39 | 1012.7 |
| 20260502192132 | 54 | 13 | 4.0 | 15.0 | 0.00 | 0.00 | 0.00 | 40 | 1012.7 |
| 20260502191621 | 54 | 254 | 4.0 | 15.0 | 0.00 | 0.00 | 0.00 | 41 | 1012.4 |
| 20260502191537 | 54 | 303 | 6.0 | 14.0 | 0.00 | 0.00 | 0.00 | 39 | 1012.2 |
| 20260502190841 | 54 | 286 | 7.0 | 16.0 | 0.00 | 0.00 | 0.00 | 39 | 1012.7 |
| 20260502190332 | 54 | 5 | 6.0 | 16.0 | 0.00 | 0.00 | 0.00 | 38 | 1012.6 |
| 20260502190057 | 54 | 325 | 9.0 | 16.0 | 0.00 | 0.00 | 0.00 | 38 | 1012.1 |
| 20260502190045 | 54 | 320 | 4.0 | 16.0 | 0.00 | 0.00 | 0.00 | 41 | 1012.4 |
| 20260502185305 | 54 | 329 | 5.0 | 16.0 | 0.00 | 0.00 | 0.00 | 37 | 1012.4 |
| 20260502184750 | 55 | 15 | 3.0 | 13.0 | 0.00 | 0.00 | 0.00 | 36 | 1012.3 |
| 20260502184523 | 55 | 275 | 2.0 | 9.0 | 0.00 | 0.00 | 0.00 | 39 | 1012.0 |
| 20260502184242 | 55 | 280 | 4.0 | 13.0 | 0.00 | 0.00 | 0.00 | 41 | 1012.4 |
| 20260502183732 | 55 | 252 | 4.0 | 13.0 | 0.00 | 0.00 | 0.00 | 39 | 1012.3 |
| 20260502183453 | 55 | 287 | 5.0 | 12.0 | 0.00 | 0.00 | 0.00 | 36 | 1012.4 |
| 20260502183059 | 56 | 257 | 4.0 | 11.0 | 0.00 | 0.00 | 0.00 | 39 | 1012.1 |
| 20260502182943 | 56 | 300 | 5.0 | 12.0 | 0.00 | 0.00 | 0.00 | 40 | 1012.6 |
| 20260502182201 | 55 | 21 | 4.0 | 12.0 | 0.00 | 0.00 | 0.00 | 41 | 1012.6 |
| 20260502181640 | 54 | 342 | 4.0 | 11.0 | 0.00 | 0.00 | 0.00 | 39 | 1012.7 |
| 20260502181517 | 54 | 355 | 2.0 | 11.0 | 0.00 | 0.00 | 0.00 | 38 | 1012.3 |
| 20260502181403 | 55 | 227 | 4.0 | 11.0 | 0.00 | 0.00 | 0.00 | 40 | 1012.8 |
| 20260502180623 | 55 | 346 | 5.0 | 16.0 | 0.00 | 0.00 | 0.00 | 39 | 1012.8 |
| 20260502180111 | 55 | 306 | 5.0 | 16.0 | 0.00 | 0.00 | 0.00 | 37 | 1012.7 |
| 20260502170415 | 53 | 188 | 4.0 | 13.0 | 0.00 | 0.00 | 0.00 | 39 | 1013.5 |
| 20260502164330 | 54 | 238 | 3.0 | 8.0 | 0.00 | 0.00 | 0.00 | 42 | 1013.6 |
| 20260502163820 | 54 | 315 | 3.0 | 9.0 | 0.00 | 0.00 | 0.00 | 41 | 1013.5 |
| 20260502163310 | 54 | 292 | 3.0 | 10.0 | 0.00 | 0.00 | 0.00 | 39 | 1013.7 |
| 20260502163043 | 53 | 312 | 3.0 | 10.0 | 0.00 | 0.00 | 0.00 | 41 | 1013.4 |
| 20260502163032 | 54 | 350 | 3.0 | 12.0 | 0.00 | 0.00 | 0.00 | 39 | 1013.8 |
| 20260502162250 | 53 | 272 | 4.0 | 12.0 | 0.00 | 0.00 | 0.00 | 39 | 1013.8 |
| 20260502161739 | 54 | 333 | 3.0 | 9.0 | 0.00 | 0.00 | 0.00 | 42 | 1013.7 |
| 20260502161510 | 53 | 313 | 3.0 | 9.0 | 0.00 | 0.00 | 0.00 | 43 | 1013.4 |
| 20260502161224 | 54 | 269 | 3.0 | 11.0 | 0.00 | 0.00 | 0.00 | 41 | 1013.8 |
| 20260502160714 | 53 | 343 | 4.0 | 11.0 | 0.00 | 0.00 | 0.00 | 44 | 1013.8 |
| 20260502160206 | 53 | 49 | 5.0 | 11.0 | 0.00 | 0.00 | 0.00 | 40 | 1013.9 |
| 20260502152040 | 51 | 297 | 4.0 | 10.0 | 0.00 | 0.00 | 0.00 | 46 | 1014.4 |
| 20260502151529 | 50 | 330 | 4.0 | 11.0 | 0.00 | 0.00 | 0.00 | 44 | 1014.4 |
| 20260502151506 | 50 | 330 | 1.0 | 11.0 | 0.00 | 0.00 | 0.00 | 42 | 1013.9 |
| 20260502151248 | 50 | 283 | 3.0 | 10.0 | 0.00 | 0.00 | 0.00 | 45 | 1014.4 |
| 20260502150505 | 50 | 334 | 4.0 | 10.0 | 0.00 | 0.00 | 0.00 | 44 | 1014.5 |
| 20260502130431 | 45 | 9 | 2.0 | 5.0 | 0.00 | 0.00 | 0.00 | 52 | 1014.7 |
| 20260502123623 | 44 | 323 | 1.0 | 4.0 | 0.00 | 0.00 | 0.00 | 53 | 1014.3 |
| 20260502123117 | 44 | 348 | 3.0 | 11.0 | 0.00 | 0.00 | 0.00 | 52 | 1014.4 |
| 20260502123053 | 44 | 348 | 2.0 | 11.0 | 0.00 | 0.00 | 0.00 | 52 | 1014.0 |
| 20260502122611 | 44 | 0 | 3.0 | 11.0 | 0.00 | 0.00 | 0.00 | 54 | 1014.5 |
| 20260502122104 | 44 | 17 | 3.0 | 5.0 | 0.00 | 0.00 | 0.00 | 54 | 1014.2 |
| 20260502121601 | 44 | 0 | 4.0 | 11.0 | 0.00 | 0.00 | 0.00 | 53 | 1014.2 |
| 20260502121537 | 44 | 360 | 1.0 | 11.0 | 0.00 | 0.00 | 0.00 | 53 | 1013.8 |
| 20260502121325 | 44 | 44 | 3.0 | 11.0 | 0.00 | 0.00 | 0.00 | 52 | 1014.2 |
| 20260502120541 | 44 | 0 | 2.0 | 6.0 | 0.00 | 0.00 | 0.00 | 53 | 1014.0 |
| 20260502115759 | 44 | 343 | 0.0 | 0.0 | 0.00 | 0.00 | 0.00 | 59 | 1014.3 |
| 20260502115016 | 43 | 333 | 0.0 | 0.0 | 0.00 | 0.00 | 0.00 | 58 | 1014.3 |
| 20260502114548 | 43 | 333 | 0.0 | 1.0 | 0.00 | 0.00 | 0.00 | 64 | 1013.9 |
| 20260502114511 | 43 | 333 | 0.0 | 1.0 | 0.00 | 0.00 | 0.00 | 65 | 1014.3 |
| 20260502114004 | 43 | 333 | 1.0 | 4.0 | 0.00 | 0.00 | 0.00 | 60 | 1014.0 |
| 20260502113449 | 42 | 333 | 1.0 | 4.0 | 0.00 | 0.00 | 0.00 | 60 | 1014.0 |
| 20260502113019 | 42 | 318 | 2.0 | 4.0 | 0.00 | 0.00 | 0.00 | 60 | 1013.6 |
| 20260502112941 | 42 | 329 | 0.0 | 4.0 | 0.00 | 0.00 | 0.00 | 64 | 1014.0 |
| 20260502112431 | 42 | 346 | 0.0 | 0.0 | 0.00 | 0.00 | 0.00 | 68 | 1014.0 |
| 20260502111922 | 42 | 346 | 0.0 | 2.0 | 0.00 | 0.00 | 0.00 | 68 | 1014.0 |
| 20260502111555 | 42 | 346 | 0.0 | 2.0 | 0.00 | 0.00 | 0.00 | 67 | 1013.6 |
| 20260502111411 | 42 | 346 | 0.0 | 2.0 | 0.00 | 0.00 | 0.00 | 67 | 1013.9 |
| 20260502111403 | 42 | 346 | 0.0 | 0.0 | 0.00 | 0.00 | 0.00 | 68 | 1013.8 |
| 20260502110338 | 42 | 346 | 0.0 | 0.0 | 0.00 | 0.00 | 0.00 | 69 | 1013.7 |
| 20260502110010 | 42 | 346 | 0.0 | 1.0 | 0.00 | 0.00 | 0.00 | 69 | 1013.2 |
| 20260502105829 | 42 | 346 | 0.0 | 1.0 | 0.00 | 0.00 | 0.00 | 68 | 1013.7 |
| 20260502105324 | 42 | 346 | 0.0 | 1.0 | 0.00 | 0.00 | 0.00 | 66 | 1013.7 |
| 20260502104814 | 43 | 346 | 0.0 | 0.0 | 0.00 | 0.00 | 0.00 | 65 | 1013.8 |
| 20260502104557 | 43 | 346 | 0.0 | 0.0 | 0.00 | 0.00 | 0.00 | 63 | 1013.4 |
| 20260502104304 | 43 | 346 | 0.0 | 0.0 | 0.00 | 0.00 | 0.00 | 62 | 1013.7 |
| 20260502104014 | 43 | 346 | 0.0 | 1.0 | 0.00 | 0.00 | 0.00 | 61 | 1013.8 |
| 20260502103848 | 43 | 346 | 0.0 | 0.0 | 0.00 | 0.00 | 0.00 | 62 | 1013.7 |
| 20260502103016 | 43 | 346 | 0.0 | 3.0 | 0.00 | 0.00 | 0.00 | 62 | 1013.4 |
| 20260502102730 | 44 | 346 | 1.0 | 3.0 | 0.00 | 0.00 | 0.00 | 61 | 1013.7 |
| 20260502102445 | 44 | 348 | 0.0 | 0.0 | 0.00 | 0.00 | 0.00 | 59 | 1013.9 |
| 20260502102319 | 44 | 346 | 0.0 | 3.0 | 0.00 | 0.00 | 0.00 | 56 | 1013.7 |
| 20260502101606 | 44 | 348 | 0.0 | 1.0 | 0.00 | 0.00 | 0.00 | 59 | 1013.4 |
| 20260502101210 | 44 | 348 | 0.0 | 2.0 | 0.00 | 0.00 | 0.00 | 58 | 1013.8 |
| 20260502100932 | 44 | 348 | 0.0 | 2.0 | 0.00 | 0.00 | 0.00 | 59 | 1013.8 |
| 20260502100147 | 44 | 348 | 1.0 | 4.0 | 0.00 | 0.00 | 0.00 | 59 | 1013.9 |
| 20260502090947 | 46 | 27 | 1.0 | 3.0 | 0.00 | 0.00 | 0.00 | 63 | 1014.5 |
| 20260502090436 | 46 | 351 | 2.0 | 3.0 | 0.00 | 0.00 | 0.00 | 63 | 1014.5 |
| 20260502071050 | 48 | 355 | 1.0 | 3.0 | 0.00 | 0.00 | 0.00 | 67 | 1013.6 |
| 20260502070540 | 48 | 355 | 1.0 | 3.0 | 0.00 | 0.00 | 0.00 | 66 | 1013.6 |
| 20260502070028 | 48 | 0 | 1.0 | 3.0 | 0.00 | 0.00 | 0.00 | 65 | 1013.5 |
| 20260502070006 | 48 | 360 | 0.0 | 3.0 | 0.00 | 0.00 | 0.00 | 65 | 1013.2 |
| 20260502065514 | 48 | 31 | 1.0 | 3.0 | 0.00 | 0.00 | 0.00 | 65 | 1013.5 |
| 20260502065008 | 48 | 325 | 2.0 | 4.0 | 0.00 | 0.00 | 0.00 | 65 | 1013.6 |
| 20260502064545 | 48 | 313 | 1.0 | 6.0 | 0.00 | 0.00 | 0.00 | 65 | 1013.5 |
| 20260502064501 | 48 | 316 | 3.0 | 10.0 | 0.00 | 0.00 | 0.00 | 65 | 1013.8 |
| 20260502063950 | 48 | 344 | 3.0 | 10.0 | 0.00 | 0.00 | 0.00 | 64 | 1013.8 |
| 20260502063440 | 49 | 5 | 2.0 | 5.0 | 0.00 | 0.00 | 0.00 | 65 | 1013.8 |
| 20260502063018 | 48 | 333 | 2.0 | 5.0 | 0.00 | 0.00 | 0.00 | 64 | 1013.7 |
| 20260502062931 | 49 | 333 | 2.0 | 5.0 | 0.00 | 0.00 | 0.00 | 64 | 1013.9 |
| 20260502062416 | 49 | 344 | 1.0 | 5.0 | 0.00 | 0.00 | 0.00 | 65 | 1014.0 |
| 20260502061906 | 49 | 229 | 2.0 | 5.0 | 0.00 | 0.00 | 0.00 | 65 | 1014.0 |
| 20260502061538 | 49 | 323 | 1.0 | 5.0 | 0.00 | 0.00 | 0.00 | 64 | 1013.8 |
| 20260502061356 | 49 | 344 | 2.0 | 5.0 | 0.00 | 0.00 | 0.00 | 64 | 1014.0 |
| 20260502060848 | 49 | 311 | 1.0 | 6.0 | 0.00 | 0.00 | 0.00 | 64 | 1014.0 |
| 20260502060339 | 49 | 339 | 1.0 | 6.0 | 0.00 | 0.00 | 0.00 | 64 | 1014.2 |
| 20260502060026 | 49 | 319 | 1.0 | 5.0 | 0.00 | 0.00 | 0.00 | 64 | 1014.0 |
| 20260502055833 | 49 | 320 | 1.0 | 5.0 | 0.00 | 0.00 | 0.00 | 64 | 1014.3 |
| 20260502055321 | 49 | 314 | 0.0 | 2.0 | 0.00 | 0.00 | 0.00 | 64 | 1014.2 |
| 20260502054816 | 49 | 314 | 0.0 | 0.0 | 0.00 | 0.00 | 0.00 | 64 | 1014.3 |
| 20260502054505 | 49 | 314 | 0.0 | 0.0 | 0.00 | 0.00 | 0.00 | 64 | 1014.0 |
| 20260502054317 | 49 | 314 | 0.0 | 6.0 | 0.00 | 0.00 | 0.00 | 64 | 1014.3 |
| 20260502053814 | 49 | 314 | 1.0 | 6.0 | 0.00 | 0.00 | 0.00 | 64 | 1014.3 |
| 20260502053302 | 50 | 346 | 2.0 | 5.0 | 0.00 | 0.00 | 0.00 | 64 | 1014.3 |
| 20260502053054 | 50 | 346 | 0.0 | 5.0 | 0.00 | 0.00 | 0.00 | 64 | 1014.0 |
| 20260502052756 | 50 | 344 | 1.0 | 5.0 | 0.00 | 0.00 | 0.00 | 63 | 1014.3 |
| 20260502052250 | 50 | 313 | 1.0 | 3.0 | 0.00 | 0.00 | 0.00 | 64 | 1014.4 |
| 20260502051743 | 50 | 244 | 1.0 | 3.0 | 0.00 | 0.00 | 0.00 | 64 | 1014.3 |
| 20260502051517 | 50 | 298 | 1.0 | 3.0 | 0.00 | 0.00 | 0.00 | 64 | 1014.0 |
| 20260502051234 | 50 | 336 | 2.0 | 8.0 | 0.00 | 0.00 | 0.00 | 63 | 1014.0 |
| 20260502050720 | 50 | 328 | 2.0 | 8.0 | 0.00 | 0.00 | 0.00 | 62 | 1014.0 |
| 20260502050215 | 50 | 333 | 1.0 | 3.0 | 0.00 | 0.00 | 0.00 | 64 | 1014.0 |